Theta_e
334 334 336 339 340 341 342 344 342 344 344 343 342 341 340 339 341 343 343 342 341 338 339 341 338 334 334 334 334 334 335 335 334 333 331 329 329 328 325 325 325 325 327 327 327 328 328 331 336 340 342 343 343 344 345 344 341 337 335 333 330 328 330 330 332 334 337 338 334 331 329 330 332 338 341 342 343 341 341 342 343 343 343 342 342
334 333 335 338 340 340 341 344 342 343 344 343 342 342 340 340 342 343 343 341 340 338 338 340 338 335 337 337 337 337 337 338 337 336 335 332 331 330 326 323 322 322 323 324 325 325 326 329 335 340 343 344 343 344 344 343 340 339 338 336 335 333 334 332 331 335 337 336 333 329 329 330 331 336 340 342 342 341 342 343 343 343 343 342 341
332 333 335 337 339 340 340 343 344 344 344 344 342 342 340 340 342 343 342 341 340 338 337 337 336 335 337 339 339 339 338 338 339 338 338 336 334 333 331 326 322 320 319 321 321 322 326 329 335 340 342 344 343 343 342 342 342 341 339 338 338 337 337 331 332 338 337 336 332 329 331 334 334 336 339 341 341 340 341 344 344 340 340 341 340
331 333 335 336 339 339 340 341 342 343 344 343 341 342 341 341 342 342 341 340 340 338 336 336 335 336 338 339 338 338 338 338 338 338 338 337 336 336 334 327 321 319 317 317 317 323 332 335 337 340 341 342 343 342 339 341 342 338 338 340 339 338 338 332 333 337 335 335 332 332 336 338 338 337 338 339 339 339 340 343 343 340 338 339 339
328 333 334 335 338 339 339 339 340 341 342 342 342 342 341 341 341 341 341 339 339 337 337 336 336 336 338 338 337 337 337 338 337 338 338 337 336 335 335 328 320 319 319 318 319 329 336 338 339 340 340 341 343 341 340 341 340 338 340 340 338 338 336 332 332 333 332 332 332 336 339 339 339 338 338 336 337 337 339 341 340 340 339 338 339
326 330 333 334 337 339 339 340 340 339 339 340 342 341 341 341 342 341 341 339 338 337 336 336 336 337 338 337 337 337 336 337 336 337 337 337 336 333 333 330 324 322 325 326 329 335 338 339 339 339 339 340 340 340 341 341 340 341 341 339 337 334 330 329 330 331 332 330 332 339 340 340 339 339 338 336 336 336 338 339 338 339 339 339 339
326 326 330 332 335 337 338 340 340 339 338 339 341 341 340 341 342 341 341 339 338 338 337 336 336 337 338 337 336 336 334 334 334 335 335 337 337 334 333 333 331 326 328 334 337 338 339 340 339 340 341 341 339 339 341 340 341 341 339 337 335 330 326 328 331 331 332 332 335 339 339 340 339 338 338 337 335 335 338 338 339 339 339 339 338
326 326 328 329 331 334 336 339 340 340 338 339 340 340 340 340 341 340 340 339 338 339 339 338 338 338 337 336 336 335 334 334 336 336 337 337 336 335 335 336 336 331 329 334 340 340 340 341 338 341 342 340 338 340 341 340 341 339 336 334 331 329 329 331 331 331 331 335 338 338 339 339 340 338 337 337 336 337 339 339 339 340 339 338 337
325 326 327 326 328 330 333 337 339 340 339 339 340 340 339 340 340 340 340 339 339 339 339 339 339 338 337 336 336 335 335 336 336 336 336 338 338 337 335 336 337 337 333 331 338 341 340 340 339 342 342 340 337 338 340 339 338 335 334 330 328 331 333 333 331 331 333 337 338 338 338 338 339 339 336 336 336 338 340 340 339 340 338 337 337
326 326 326 325 327 330 332 336 338 340 340 340 341 341 340 340 340 340 340 339 339 339 338 338 338 338 337 337 337 336 336 335 335 335 336 336 338 338 335 336 335 337 337 334 336 340 341 340 341 342 341 340 337 337 339 337 333 332 332 331 333 334 335 334 332 333 336 337 337 337 338 338 338 339 336 334 336 338 340 340 339 339 337 335 336
328 326 326 327 329 330 332 336 338 340 340 340 341 341 341 341 341 340 340 340 339 338 337 337 337 336 336 336 337 336 336 336 335 336 336 334 335 336 334 335 334 335 336 336 336 338 340 340 342 342 341 340 337 337 338 335 331 331 331 329 335 336 334 333 332 335 336 336 337 337 337 337 338 338 335 334 337 338 338 339 337 336 335 334 335
328 328 327 329 330 331 333 337 338 339 341 341 341 340 341 341 340 340 340 340 339 339 337 336 336 335 336 336 336 336 337 338 336 336 336 334 333 334 335 335 335 335 335 335 336 337 339 341 343 342 341 341 337 337 337 335 331 332 330 323 333 337 331 331 332 335 336 335 336 337 336 336 338 338 336 336 337 337 338 337 334 334 334 334 334
326 328 328 329 331 333 335 338 339 340 341 341 341 340 340 340 340 339 339 339 338 338 337 336 335 335 336 336 337 337 338 337 337 336 334 333 333 333 335 336 334 336 336 335 334 334 338 341 341 340 341 341 339 338 335 333 329 333 332 323 331 335 330 331 334 336 335 335 335 336 337 337 339 337 337 337 337 337 336 334 334 335 334 333 334
324 327 328 328 331 333 336 338 339 341 341 341 341 341 340 340 339 338 338 339 338 337 337 337 335 336 336 336 336 337 337 336 336 334 332 331 332 333 334 336 335 336 335 333 334 335 338 341 339 338 340 340 339 337 333 331 330 333 332 327 330 329 327 331 334 335 335 335 336 336 337 338 338 336 337 337 337 336 334 334 335 336 334 334 335
322 327 328 328 329 332 335 336 337 339 341 341 341 340 340 340 339 337 337 339 339 337 336 336 335 335 335 335 335 337 337 335 334 332 330 330 332 333 334 334 335 337 335 332 336 338 338 341 340 338 338 339 338 335 332 332 331 331 330 328 326 320 324 331 333 334 334 335 336 337 337 338 337 336 338 337 336 335 335 336 336 335 335 335 335
321 325 327 327 328 330 331 333 334 335 338 340 340 340 339 339 338 337 336 337 339 338 335 335 335 335 335 335 335 336 337 335 332 331 331 331 332 333 334 334 334 337 336 334 338 338 337 339 338 338 338 338 336 333 334 332 329 330 329 325 320 320 327 331 331 333 333 335 337 338 337 337 337 337 338 337 337 337 336 336 336 336 336 335 334
320 323 326 327 326 327 326 328 330 332 335 337 338 338 338 337 336 336 335 336 338 337 335 334 335 335 334 334 335 335 336 335 332 332 332 332 331 333 334 334 335 337 337 337 339 338 337 338 337 338 339 337 336 334 333 329 328 329 326 320 319 325 330 328 329 332 334 336 337 337 337 337 336 337 337 336 337 337 336 336 336 336 335 335 334
320 322 324 326 325 324 323 324 325 328 332 334 335 335 336 335 334 335 335 336 337 336 335 334 334 334 333 334 334 334 335 335 333 333 332 332 331 332 334 334 336 339 338 338 339 338 336 338 337 337 337 336 335 332 330 329 329 326 322 322 324 326 328 326 329 331 333 336 337 336 336 335 333 335 337 336 337 336 336 336 336 335 335 335 333
321 322 323 324 324 321 320 321 322 324 328 331 333 333 334 334 334 335 335 335 336 335 334 334 334 333 333 333 333 333 334 334 332 332 332 333 332 333 335 334 336 338 338 338 338 337 336 337 337 336 336 335 333 331 330 330 327 321 320 325 326 325 326 328 331 332 334 335 336 335 334 334 332 334 336 337 337 336 336 335 334 334 334 333 331
320 321 322 323 322 320 318 319 320 322 326 329 332 333 333 334 333 335 334 334 334 334 333 333 333 333 333 332 332 332 333 333 332 331 331 332 334 335 335 334 335 338 338 338 337 335 335 335 335 335 334 334 333 331 328 327 324 320 322 327 327 326 326 329 331 332 333 333 334 334 333 334 333 334 335 336 335 334 335 334 333 332 332 331 330
320 320 321 322 322 320 317 318 320 323 327 330 332 334 335 334 333 333 333 333 333 334 333 332 333 333 332 332 331 331 332 332 331 331 330 331 333 333 333 335 335 336 338 337 336 335 334 333 332 331 330 331 331 328 326 327 327 326 327 329 330 329 327 328 331 332 333 332 333 333 332 333 334 334 335 335 334 334 333 332 332 331 330 329 329
323 322 320 320 321 322 321 320 320 322 327 330 332 334 335 335 333 332 332 331 331 333 332 331 331 332 332 331 330 331 332 331 331 332 330 329 331 331 332 334 333 335 337 337 336 334 332 330 328 327 327 328 327 324 324 325 327 329 330 329 330 330 328 327 330 331 331 331 332 332 331 332 334 334 335 335 334 333 332 330 330 329 329 328 327
320 322 323 322 321 322 324 324 322 322 326 329 331 332 334 334 333 332 332 331 331 332 332 331 331 332 331 330 330 332 332 331 331 331 329 328 329 330 332 333 332 333 335 336 336 334 331 327 324 325 326 327 325 323 323 323 324 328 329 328 329 330 329 326 327 329 329 331 331 330 332 333 334 335 335 335 334 332 330 329 329 328 328 327 325
316 318 321 323 323 322 325 326 326 325 327 328 330 331 332 332 332 332 332 331 331 331 331 332 331 332 332 329 330 333 330 330 331 328 327 328 328 329 332 331 332 333 333 334 334 332 329 326 325 325 325 324 323 322 323 324 325 327 327 327 329 328 328 326 324 327 328 330 330 328 331 333 334 335 335 334 333 333 330 328 329 328 327 326 325
315 316 317 319 321 322 324 326 327 327 327 328 329 330 330 331 332 332 333 332 332 332 331 332 332 332 332 329 330 331 328 330 330 326 328 331 329 330 331 330 331 333 333 333 332 329 328 326 324 323 322 322 323 322 323 326 326 325 325 325 327 327 327 326 325 326 327 328 328 328 330 332 333 333 334 333 333 332 330 329 328 327 326 324 324
313 314 315 316 318 321 322 324 326 326 326 327 328 329 329 330 331 331 333 333 332 332 330 331 331 331 331 330 330 330 328 329 329 326 330 331 330 331 330 329 331 332 330 332 330 326 327 326 323 321 322 323 324 323 324 327 325 324 323 323 324 325 326 326 325 326 326 327 328 327 329 331 332 332 332 333 332 330 329 328 327 326 325 324 324
312 312 312 314 315 317 320 322 324 324 325 326 327 328 328 329 330 331 332 333 332 331 331 330 330 331 330 329 329 330 329 329 328 328 331 331 330 329 329 328 330 330 329 330 327 324 326 328 326 324 324 323 320 322 325 324 321 321 321 321 321 321 322 323 322 322 324 328 328 328 328 329 330 330 331 330 330 328 327 327 326 325 324 324 323
309 309 310 311 313 314 316 319 322 323 324 324 326 327 327 328 329 330 331 332 331 331 331 331 330 330 330 329 328 329 330 329 327 327 329 330 330 330 330 328 328 329 328 329 328 326 328 329 328 326 326 323 315 316 322 322 319 319 319 319 317 315 318 321 321 320 322 327 328 327 327 328 329 329 328 328 328 327 327 326 325 324 324 323 323
307 307 309 310 311 312 313 316 319 321 323 324 324 326 326 327 328 329 330 330 331 330 331 331 330 329 329 328 327 328 330 329 326 325 328 330 330 330 330 328 327 327 327 329 329 329 329 329 328 327 326 324 318 317 321 321 320 320 319 317 315 314 317 320 323 323 324 327 327 326 326 327 327 327 327 328 327 326 325 325 324 324 324 323 323
306 307 307 308 309 310 311 313 316 319 321 323 324 324 325 326 326 328 329 329 330 330 330 331 330 329 328 326 325 327 329 329 326 325 328 330 330 330 329 328 327 326 327 328 328 328 327 326 328 327 326 324 323 322 322 322 321 320 319 317 316 318 318 320 323 325 326 326 326 325 325 326 327 326 326 326 326 325 324 324 324 324 323 323 322
306 306 306 307 308 309 310 311 313 316 320 322 323 323 324 325 325 326 328 328 329 329 329 330 329 328 327 325 323 325 328 329 327 326 328 330 329 329 328 327 326 326 327 328 328 327 326 325 327 327 325 324 324 323 323 321 320 320 319 318 320 322 320 321 323 325 325 325 325 325 325 325 326 325 324 325 324 324 324 323 323 323 323 322 321
306 306 306 307 307 308 310 311 312 314 317 320 322 323 323 324 325 325 327 328 328 328 329 329 328 327 326 325 323 324 326 329 328 326 328 329 328 328 327 326 326 326 327 328 328 328 326 325 326 327 326 324 324 323 322 320 320 321 320 321 323 324 323 323 323 324 324 324 324 324 324 324 325 324 324 324 324 324 324 323 323 322 322 322 321
306 306 307 306 306 308 309 311 312 313 315 318 320 322 323 323 324 324 326 328 328 328 328 328 328 327 326 325 324 323 324 327 328 324 325 328 326 327 327 326 326 325 326 327 327 327 327 325 325 326 325 324 323 322 321 320 321 322 321 323 324 324 325 324 323 324 324 324 323 323 324 324 324 324 324 323 323 323 322 322 322 322 321 321 320
306 306 307 305 305 307 308 311 313 314 315 316 318 320 322 323 323 323 324 326 328 328 328 327 327 327 326 325 324 323 323 326 327 324 325 327 325 325 327 326 325 324 324 326 326 327 327 325 324 324 323 322 322 321 321 321 323 322 322 323 324 323 324 324 323 323 323 323 322 322 323 324 324 324 323 323 322 321 321 321 322 321 321 320 320
305 306 307 305 305 306 307 311 314 315 315 316 317 319 320 322 322 323 322 324 326 328 328 327 327 326 325 325 325 324 324 324 326 325 324 327 326 324 325 326 325 323 323 324 325 325 326 326 324 323 322 321 321 320 320 322 322 322 322 323 323 323 323 323 323 322 322 323 322 321 322 323 324 323 323 322 321 320 319 320 321 320 319 319 319
304 305 306 306 306 305 306 309 312 313 315 316 316 318 319 320 321 321 321 323 324 326 327 326 326 326 325 325 325 324 324 323 324 324 324 326 326 324 324 325 325 323 323 323 323 324 325 325 324 322 321 320 320 320 320 320 321 322 322 322 321 321 322 322 322 322 322 322 321 320 321 323 323 323 323 321 320 319 319 320 320 319 318 318 318
303 304 305 305 306 305 305 307 309 312 314 316 316 317 318 318 319 320 320 321 322 324 325 325 325 325 326 325 325 325 323 323 324 324 324 325 325 324 323 324 325 323 323 324 323 322 323 323 321 321 321 320 320 320 319 320 321 322 322 321 320 320 320 321 322 322 321 321 321 321 321 322 322 322 322 321 320 319 319 319 318 317 317 318 317
302 303 304 305 305 305 305 306 307 310 312 315 317 317 316 317 319 319 321 320 320 322 323 324 323 324 325 324 324 324 323 323 324 323 323 325 324 323 323 323 324 322 322 323 322 321 321 321 320 320 320 321 321 320 320 320 320 322 322 322 321 319 320 321 320 321 321 320 320 321 321 320 320 321 321 321 320 319 318 318 317 315 315 316 316
300 302 303 304 304 304 304 305 305 307 309 312 315 317 317 317 317 317 320 321 320 320 322 323 323 323 325 324 324 324 324 324 325 323 323 324 324 324 323 323 323 321 321 322 320 319 320 320 320 320 320 321 321 321 320 320 320 320 321 321 321 321 321 321 321 321 321 321 321 321 321 320 320 320 320 320 320 319 318 318 317 315 315 316 316
298 300 302 303 303 302 302 303 304 305 307 309 311 315 318 319 318 317 319 320 320 320 321 321 322 323 324 324 324 324 323 324 324 323 323 323 324 324 324 323 322 321 320 321 319 315 318 320 320 320 319 320 321 321 321 320 318 317 317 319 320 321 321 321 321 320 319 321 321 320 321 321 320 320 319 319 319 318 318 318 318 317 316 317 317
297 299 301 301 301 301 301 301 301 302 304 306 308 310 313 317 318 319 319 319 320 321 321 322 322 322 322 322 324 324 323 322 323 323 322 323 324 323 323 322 322 320 320 321 317 315 319 320 319 319 319 319 319 319 320 319 316 313 314 315 316 317 318 319 320 319 318 320 321 320 321 321 319 319 318 318 318 317 317 317 318 318 317 318 318
297 298 299 299 300 301 300 300 300 301 302 303 305 306 309 312 315 318 318 318 319 320 321 322 322 322 322 321 322 323 322 322 323 323 323 324 324 323 322 322 321 321 320 319 316 316 320 320 318 318 318 318 317 317 318 318 316 314 314 313 312 313 315 316 317 317 317 319 320 320 321 321 319 318 318 318 317 317 316 316 317 317 318 318 319
297 297 298 298 298 299 299 299 299 300 301 301 302 304 305 307 311 315 317 318 318 319 320 321 320 321 322 322 322 323 322 322 322 322 323 323 323 322 321 321 320 320 319 318 317 317 319 319 318 318 318 317 316 316 318 317 315 314 315 314 313 313 312 312 312 314 315 315 317 320 321 320 319 318 318 318 318 317 316 316 317 317 317 318 318
296 296 297 297 297 298 298 298 299 299 300 300 301 302 303 304 308 312 315 317 318 319 320 321 321 320 321 322 323 324 323 322 320 320 322 322 322 322 321 320 319 319 318 318 317 317 318 318 318 318 317 316 314 314 316 316 315 315 316 315 314 314 314 311 308 310 312 313 314 317 319 319 318 318 318 318 318 318 317 317 317 317 317 317 318
296 296 296 297 297 297 297 298 299 299 299 300 300 301 302 303 306 308 311 314 316 317 318 320 321 321 320 321 322 323 323 323 321 320 321 322 322 321 321 320 319 319 318 318 318 317 318 317 317 317 317 315 314 314 315 315 315 316 316 314 314 316 315 311 309 308 308 311 312 314 315 317 318 318 318 318 318 318 317 317 317 317 317 317 317
295 295 296 296 296 297 297 298 299 299 298 299 299 300 301 302 304 305 308 312 314 315 316 317 319 320 319 319 321 322 323 323 321 320 321 322 322 321 320 320 320 319 317 317 317 317 317 317 316 317 316 315 314 314 314 314 315 316 315 314 313 315 314 311 312 310 306 307 310 312 312 313 314 316 317 317 317 317 317 316 316 316 316 316 317
295 295 295 295 296 297 297 298 298 298 298 298 299 299 300 301 302 304 306 308 311 313 314 315 317 319 319 319 320 321 321 322 321 320 320 321 321 321 321 320 320 319 317 317 317 317 318 317 317 317 316 315 314 314 313 313 314 314 314 314 312 313 313 312 314 312 308 306 306 308 310 311 312 313 314 315 315 316 316 316 316 316 316 316 316
295 295 295 295 296 296 297 298 298 298 298 299 299 299 299 300 301 302 303 304 307 310 312 313 314 317 319 319 319 320 320 321 321 321 319 319 320 320 320 320 320 319 318 317 316 316 317 317 317 317 316 315 315 315 314 312 313 313 312 312 311 311 313 313 314 312 312 309 304 304 306 308 310 311 312 312 313 314 314 314 315 315 316 315 315
294 295 295 295 295 296 297 297 298 297 297 298 298 299 299 299 300 300 300 301 303 305 308 311 312 314 317 319 319 319 319 319 320 320 319 318 319 319 319 320 320 319 318 317 316 316 316 316 316 316 315 316 315 315 314 313 314 313 310 310 310 310 311 312 313 311 312 311 307 304 302 303 307 309 310 311 311 312 312 312 313 313 313 313 313
294 294 294 294 295 295 296 296 297 297 297 298 298 298 299 299 299 299 298 299 301 302 304 307 310 312 314 317 319 319 319 319 319 319 318 317 318 318 318 319 319 319 318 317 317 316 316 316 316 316 315 315 315 315 315 313 314 314 311 309 308 309 310 310 311 310 311 311 310 307 303 303 305 305 306 309 309 310 310 310 311 310 311 311 311
294 294 294 294 294 294 295 295 296 296 296 297 298 299 299 299 298 298 297 297 298 300 302 304 306 308 311 314 317 320 319 318 319 319 318 317 317 317 317 317 318 318 318 317 317 317 317 316 316 316 316 316 315 315 315 314 314 314 312 310 309 309 309 310 310 310 310 310 310 308 305 306 305 301 301 305 307 308 308 307 308 308 309 309 309
Wind_Speed
15 18 17 18 19 18 15 16 17 17 17 18 18 17 17 16 16 15 14 14 14 15 15 14 13 14 14 14 14 13 13 12 12 13 13 14 14 15 16 16 17 17 17 17 16 15 15 14 14 15 16 18 21 23 22 21 22 22 23 23 25 24 23 24 23 20 18 17 17 18 19 17 17 16 17 18 18 20 21 21 20 20 20 19 20
13 19 18 18 19 19 16 14 15 15 16 16 17 17 17 17 16 15 15 15 15 15 15 14 13 13 12 12 11 11 10 10 10 10 12 13 14 15 16 17 17 17 18 18 18 17 17 16 15 16 17 20 22 24 24 22 23 23 23 24 25 25 25 25 23 19 19 18 18 19 19 18 18 17 18 19 20 21 21 20 19 19 20 20 21
11 19 19 19 19 19 17 15 15 15 15 15 16 17 17 17 16 16 16 15 15 14 14 14 14 13 12 10 9 9 9 9 10 10 10 12 13 14 15 17 18 18 18 19 19 19 18 18 16 17 18 20 24 25 25 23 24 24 24 24 24 25 24 24 22 20 20 19 19 20 19 19 19 19 19 20 21 22 21 19 18 20 21 21 22
12 19 20 19 19 20 19 17 16 16 16 16 17 17 18 18 17 16 16 16 15 14 14 14 14 13 12 11 10 9 9 9 10 10 11 11 12 12 14 16 17 17 18 19 20 19 18 18 16 18 18 19 24 25 25 25 25 24 24 24 24 24 23 24 22 20 20 20 20 19 19 18 19 20 20 20 21 22 21 19 19 20 21 21 21
14 18 20 19 20 20 20 19 18 17 17 17 17 18 19 18 17 17 17 16 16 14 14 14 14 13 12 12 11 10 10 10 11 11 12 12 12 12 13 15 16 17 18 19 20 19 18 18 17 19 18 19 24 25 26 27 26 25 26 26 25 24 23 23 21 20 20 20 20 18 17 17 19 20 20 20 22 22 20 20 21 21 21 21 20
15 18 21 21 21 21 21 21 20 19 18 18 18 19 20 19 18 18 17 17 16 15 14 14 13 13 13 12 12 11 11 12 12 12 12 13 13 13 13 13 13 15 17 19 19 18 18 19 19 20 20 21 25 26 27 28 26 25 27 26 25 24 22 21 21 21 21 22 20 15 15 17 18 20 20 20 22 23 21 21 21 22 21 21 21
15 18 22 23 23 24 24 23 23 22 20 19 20 20 21 20 19 19 18 18 17 16 15 14 13 13 13 13 12 12 12 13 13 13 13 14 14 13 14 14 13 14 17 18 18 18 19 19 20 22 22 24 28 29 28 28 24 25 27 25 24 23 21 21 21 21 22 21 17 13 14 16 18 20 20 20 22 23 22 21 21 22 21 22 22
16 18 22 24 25 26 26 26 25 24 22 21 21 22 22 21 21 20 19 19 17 16 15 14 14 14 14 14 14 14 13 13 14 15 15 15 15 16 16 16 15 15 17 19 18 19 20 20 22 22 23 27 30 30 29 28 24 25 26 23 22 21 21 21 20 21 20 17 13 12 14 16 18 19 21 21 22 22 21 22 23 22 22 22 23
18 18 22 25 26 27 27 28 28 27 25 23 22 23 23 22 21 20 20 19 18 17 16 15 15 15 15 15 15 15 15 15 16 17 17 16 16 17 17 16 17 17 17 20 20 20 20 22 23 22 22 29 33 32 31 30 27 26 25 22 21 21 21 20 20 20 17 13 12 12 13 17 17 19 22 22 21 21 21 23 24 23 23 23 23
21 20 22 25 27 27 28 30 30 28 27 25 23 23 23 22 22 21 21 20 19 19 18 16 16 16 15 16 16 17 16 16 17 18 18 18 17 18 18 17 18 18 19 20 21 21 21 23 24 23 25 32 36 34 33 32 31 29 26 24 24 24 21 19 19 17 14 12 13 12 13 16 17 19 23 23 22 23 24 24 24 24 25 25 24
23 23 22 25 27 26 28 30 30 29 28 26 24 24 23 23 22 22 22 22 21 19 19 17 16 16 17 18 18 18 17 18 18 18 19 18 18 17 17 18 18 18 19 20 22 22 22 24 23 23 28 35 37 35 34 33 33 29 27 25 23 23 19 18 18 15 13 12 13 13 15 17 16 20 24 24 24 25 27 27 26 26 25 25 23
24 25 24 26 27 26 27 29 29 28 28 27 25 23 23 24 23 23 24 24 22 21 20 19 17 18 18 18 18 18 18 20 20 20 19 18 18 16 16 17 17 17 19 20 22 22 21 24 23 24 29 35 36 35 35 33 33 29 29 27 22 20 19 18 16 14 13 13 13 14 17 18 16 20 24 25 26 29 30 29 28 26 25 25 24
24 26 26 26 27 27 26 28 28 28 28 27 26 24 24 24 24 23 24 25 25 23 22 20 19 19 19 18 18 18 19 20 22 20 18 17 16 15 15 16 15 16 17 19 20 21 21 22 23 26 31 36 37 38 38 35 33 30 29 30 24 18 18 19 15 13 13 13 15 16 16 16 17 22 24 25 29 30 30 30 28 26 26 26 25
24 26 26 25 26 27 27 27 28 28 28 28 27 26 24 23 23 23 23 25 26 25 23 22 21 20 19 19 19 19 19 21 22 20 17 16 15 14 15 15 14 14 15 17 17 18 20 20 21 25 31 36 38 40 38 34 33 31 29 29 25 19 17 19 16 13 14 15 16 16 15 16 20 24 24 26 29 30 30 29 27 26 27 26 27
23 25 25 25 25 26 28 28 28 29 29 29 29 27 26 23 22 23 23 24 25 25 24 23 22 21 20 20 19 19 19 20 20 19 17 16 14 14 15 15 14 14 15 15 14 17 17 16 18 24 33 38 38 39 35 33 34 32 29 26 23 19 20 19 16 16 16 17 17 15 15 18 22 24 26 27 28 30 31 29 28 28 28 27 28
23 24 24 25 25 25 27 29 30 30 30 30 30 29 28 25 24 23 23 24 24 24 24 22 22 22 22 20 18 18 19 20 19 18 18 15 14 14 15 16 14 14 15 14 13 17 16 14 20 28 37 39 38 37 35 36 36 32 30 26 21 20 23 21 18 19 18 17 16 15 17 22 24 24 27 29 29 30 31 30 30 28 27 28 28
22 23 25 25 25 25 25 28 30 31 31 31 30 30 29 28 28 25 23 25 24 23 23 22 22 23 22 21 18 17 19 20 20 18 17 15 14 14 16 16 14 14 13 14 14 14 12 16 25 32 37 38 37 37 36 35 34 31 30 26 23 23 26 24 20 20 19 16 14 17 22 26 26 25 26 28 29 30 30 30 29 27 27 27 28
22 23 25 25 26 26 25 26 28 30 31 32 31 31 30 30 30 27 23 24 25 24 23 22 23 24 22 20 18 17 19 20 19 18 17 15 14 14 16 15 14 13 12 14 13 13 15 22 28 32 35 36 36 36 35 34 33 32 30 27 25 26 27 24 20 20 20 17 15 19 24 26 25 25 26 27 28 29 30 30 29 28 27 27 28
22 23 25 27 27 27 26 26 26 28 30 32 31 31 32 32 31 29 25 24 25 24 24 23 23 24 22 20 19 18 19 20 19 18 17 15 14 14 16 15 13 12 13 14 14 18 21 26 30 30 33 34 34 34 33 34 32 31 30 28 27 28 27 23 20 21 21 19 17 19 22 24 24 24 26 27 28 29 30 31 31 29 28 28 28
24 25 26 28 28 29 28 27 26 27 28 29 28 27 29 32 32 30 28 25 25 26 25 25 24 24 23 21 20 19 20 20 20 19 16 14 15 16 16 14 12 12 13 15 17 22 26 30 33 32 33 34 32 33 33 34 33 31 30 30 30 29 27 23 21 20 20 19 17 19 23 23 23 24 27 29 30 30 30 31 33 31 28 27 27
23 25 27 28 28 30 30 29 28 26 25 25 23 22 24 29 32 31 30 28 26 26 25 25 25 25 24 22 20 20 21 21 20 18 16 15 16 17 15 13 11 12 15 18 20 25 31 35 35 33 32 31 30 33 34 33 33 32 32 32 31 29 28 24 21 19 19 19 17 20 23 22 23 24 26 30 31 31 31 31 32 31 29 27 26
18 23 26 28 28 29 29 29 29 27 24 22 21 21 22 26 30 31 31 30 27 27 27 26 26 26 25 24 22 20 21 21 18 16 16 17 17 17 15 13 10 12 17 22 24 28 32 32 32 32 32 30 31 35 34 32 30 30 31 31 30 28 27 25 21 18 19 19 17 21 21 20 23 23 25 29 30 30 29 29 30 30 29 28 26
17 18 20 23 25 26 25 25 29 29 25 22 21 22 23 24 27 30 31 30 29 28 27 26 27 27 26 26 22 19 22 20 16 17 18 18 17 17 14 12 10 10 16 23 27 31 32 30 31 34 33 31 32 35 35 32 29 28 29 30 29 27 26 25 20 17 19 18 18 21 21 20 22 23 25 28 29 29 28 28 29 29 29 28 26
21 19 18 18 21 24 23 22 25 26 24 22 21 22 23 23 24 27 30 31 29 30 29 26 27 27 26 27 22 20 25 20 17 20 19 18 17 16 13 11 11 10 16 23 27 32 34 33 34 33 33 34 35 35 35 33 30 28 29 28 26 25 24 24 21 17 17 16 17 20 20 20 21 23 25 26 28 28 28 29 29 29 28 28 26
21 21 21 19 19 20 22 21 21 22 22 23 23 24 24 23 24 25 28 29 28 31 31 28 27 27 26 26 21 22 27 20 18 20 18 19 19 17 14 13 14 12 16 23 26 29 31 32 31 29 31 35 37 37 36 34 33 30 28 26 23 21 21 21 20 18 17 15 16 18 19 20 18 21 26 27 28 28 28 29 29 29 27 27 26
19 20 22 22 20 19 19 20 20 21 23 23 23 24 24 25 25 24 25 25 27 31 31 29 28 27 27 26 23 25 27 22 19 19 17 19 20 17 16 17 19 17 17 23 24 24 27 30 32 32 33 35 34 35 35 33 33 31 28 26 22 20 19 19 18 18 17 16 17 17 17 18 17 21 25 27 29 29 29 29 28 28 26 26 26
21 22 23 22 22 20 20 20 21 22 23 24 24 24 25 26 27 26 25 24 26 32 32 30 28 27 28 27 25 24 24 23 22 19 16 18 18 18 19 20 23 23 21 23 24 24 27 32 36 36 35 35 33 31 32 31 30 29 28 27 25 22 19 18 17 17 17 15 16 17 16 16 17 21 26 27 28 29 29 28 26 26 26 26 26
24 25 25 23 23 23 21 20 21 22 22 23 23 24 25 26 27 28 29 28 27 30 30 30 31 29 28 28 27 25 22 25 25 20 17 17 17 19 23 22 23 25 23 22 24 25 30 35 36 35 35 36 34 31 32 31 27 28 29 28 26 23 20 19 18 18 17 15 15 17 17 16 16 20 25 27 28 28 28 27 25 26 27 26 26
27 28 26 25 25 25 23 21 21 22 22 22 22 23 25 27 28 30 31 33 31 29 28 27 31 30 28 29 31 27 23 25 28 23 18 18 18 21 26 26 26 27 25 21 22 25 30 35 36 36 37 38 36 35 35 32 29 28 28 27 25 25 23 21 20 19 18 16 14 16 17 16 16 19 23 27 28 28 28 27 26 26 27 26 26
26 27 26 26 27 26 24 22 21 22 22 22 22 22 24 27 31 30 30 34 32 30 30 28 30 30 30 33 35 32 25 25 30 27 20 20 18 19 26 28 28 30 29 27 25 27 28 33 38 38 38 39 38 38 37 34 32 29 28 26 27 27 26 24 23 21 19 18 16 16 16 16 18 20 22 26 28 27 27 27 26 26 27 27 26
25 26 27 27 27 26 24 23 21 21 21 21 22 23 24 25 30 32 31 34 32 30 32 30 30 31 32 36 38 35 29 25 28 28 21 20 19 17 22 27 29 31 31 31 29 28 28 32 37 39 38 38 38 38 37 35 33 31 29 29 30 30 30 28 26 23 22 21 19 17 16 16 19 21 22 25 27 27 28 27 26 27 28 28 26
24 25 27 27 28 29 27 23 21 19 20 21 23 24 25 24 27 32 34 34 33 33 33 31 31 31 30 34 39 38 34 27 28 30 23 21 22 19 20 25 31 34 31 32 32 29 27 31 36 38 38 39 39 38 36 36 35 33 32 31 31 31 31 31 29 27 26 24 22 20 18 18 20 22 24 26 27 28 29 28 27 27 28 27 26
23 24 28 30 30 30 29 24 21 18 18 20 22 23 25 25 25 30 33 34 34 35 35 34 33 30 25 28 36 40 39 31 29 34 28 23 25 22 23 27 31 34 32 32 34 31 28 30 34 38 39 39 39 39 37 36 36 36 34 32 31 30 30 31 30 30 29 25 24 22 20 21 22 23 25 25 27 28 29 29 26 25 27 26 26
24 24 29 34 31 28 29 26 22 19 17 17 21 22 24 25 24 29 33 33 33 34 36 36 33 30 28 28 32 39 43 36 29 34 31 24 27 26 25 30 31 30 31 34 34 33 32 31 32 35 39 38 37 39 39 36 35 35 34 32 31 29 28 29 28 29 28 25 25 25 22 22 24 24 25 26 27 27 28 28 26 25 25 26 26
28 26 28 34 33 31 30 26 22 19 18 16 18 20 24 25 26 30 33 33 33 33 35 37 33 30 32 32 32 36 42 42 35 36 34 24 25 28 29 33 33 28 28 29 32 35 35 36 35 33 37 38 36 40 39 36 35 34 34 33 31 29 26 25 25 25 27 27 25 25 24 23 25 25 25 28 28 27 27 27 26 25 25 25 25
29 27 28 31 32 33 33 29 26 22 19 18 17 18 22 27 29 32 32 33 35 33 33 37 35 33 34 33 33 33 36 45 43 39 37 29 24 27 31 36 36 31 28 27 30 36 37 39 37 32 39 40 35 37 39 37 35 34 34 34 32 29 26 24 24 23 24 27 27 27 26 25 27 27 27 30 29 28 27 26 27 26 24 24 24
28 27 28 28 29 31 32 32 31 27 23 20 19 19 20 24 27 31 32 33 36 37 36 37 35 35 36 35 35 35 36 45 47 40 35 31 27 26 29 36 39 36 34 33 33 35 37 38 34 32 40 42 36 36 37 36 35 35 34 32 31 29 27 25 23 23 21 22 27 30 28 27 29 28 29 30 28 28 27 27 28 26 24 23 24
27 27 27 28 27 27 29 31 31 30 28 25 23 22 22 22 24 27 31 34 36 38 39 39 38 37 37 36 35 36 41 47 48 42 33 29 28 28 31 36 38 36 35 37 36 34 35 37 34 31 36 39 40 38 36 35 34 35 33 31 31 28 28 27 24 24 21 20 26 32 31 28 28 28 30 30 29 29 28 27 27 26 25 24 25
28 27 27 27 28 27 27 29 30 31 32 29 27 26 24 23 24 26 28 34 37 38 38 39 40 38 38 40 39 37 42 49 49 44 35 31 30 30 33 37 37 36 36 37 36 34 33 35 35 32 31 35 43 43 38 36 34 33 33 31 30 30 29 28 26 25 25 26 29 33 34 31 28 29 30 30 30 31 30 28 28 27 27 27 27
28 27 26 27 27 28 27 27 29 31 31 31 30 28 26 24 24 24 25 29 35 37 37 39 40 39 39 41 42 41 41 44 46 45 40 34 33 34 35 39 38 37 39 39 39 38 36 36 36 34 31 31 39 43 41 38 33 29 29 30 29 28 27 27 26 23 25 30 31 31 34 33 31 31 31 30 30 31 32 31 30 30 30 29 28
29 28 27 27 27 26 26 27 29 30 30 30 31 31 29 26 24 23 24 28 30 33 35 39 39 40 43 42 41 39 36 39 41 42 43 37 34 36 37 40 40 40 42 43 42 40 40 39 37 35 32 29 32 37 41 41 33 22 21 23 23 23 22 23 23 21 24 31 31 31 33 34 34 33 32 31 30 31 31 31 31 32 31 29 27
30 30 29 30 29 25 25 26 28 30 29 29 31 32 32 31 29 28 28 29 29 29 32 38 39 38 43 46 46 39 33 36 36 36 40 38 34 32 37 43 44 43 42 41 42 39 39 42 40 36 32 31 33 36 42 39 27 19 18 16 13 13 16 17 20 22 26 29 30 32 33 35 36 35 33 31 30 30 30 30 30 30 29 27 25
26 27 28 29 29 26 25 25 26 28 28 30 31 31 34 36 33 31 30 29 30 31 31 35 39 40 40 40 45 44 37 36 33 32 37 40 36 31 35 43 44 45 40 37 42 41 39 41 43 41 32 29 33 39 45 38 27 24 19 11 7 7 8 10 14 21 25 26 28 32 33 35 37 35 34 32 30 29 28 28 28 28 27 25 23
24 24 26 26 26 26 28 27 25 24 26 29 31 32 36 39 37 32 30 28 29 32 33 34 35 38 39 37 40 42 40 38 33 32 37 39 39 35 35 38 40 43 41 38 41 42 42 41 42 43 37 29 27 34 40 37 36 32 15 5 6 6 4 5 9 14 20 22 24 29 31 34 36 35 34 33 31 29 28 27 26 25 25 24 22
24 24 25 25 24 25 27 28 24 23 25 28 31 32 32 35 36 34 31 27 25 26 29 32 31 32 36 37 39 39 37 39 38 36 37 36 38 39 38 37 36 39 41 42 42 41 42 42 41 42 41 34 29 31 31 31 41 41 23 10 7 6 6 8 10 8 13 19 21 25 27 29 33 34 35 34 33 30 28 27 26 24 23 22 21
28 26 25 25 25 24 24 26 24 21 24 27 29 29 28 29 31 31 28 24 23 22 23 28 31 32 33 33 36 39 36 35 37 39 40 35 33 37 39 38 37 38 40 42 43 41 40 42 42 40 40 40 35 31 27 28 35 38 33 21 7 5 12 14 10 4 6 13 18 22 24 25 28 30 33 34 33 32 30 28 26 25 23 22 21
30 29 27 27 26 23 22 24 24 21 21 25 27 26 25 26 27 28 28 25 23 24 27 30 32 32 32 32 34 37 37 35 33 37 42 38 32 36 40 40 39 40 42 41 41 43 43 43 45 41 38 40 39 32 28 29 29 28 32 26 9 8 21 22 11 6 6 7 11 17 19 22 25 26 29 31 31 31 30 28 27 26 24 22 21
31 30 30 28 27 25 22 22 24 23 20 21 23 22 22 23 23 24 27 28 27 28 30 32 34 33 29 30 31 31 35 38 33 33 40 40 37 40 42 42 42 41 44 44 42 43 44 42 45 44 39 39 39 36 32 32 29 24 26 26 15 13 24 26 16 11 8 5 6 9 12 18 21 23 25 27 29 29 28 28 26 26 24 22 21
31 31 31 30 29 28 25 22 24 25 23 21 21 21 20 21 20 20 24 28 29 31 32 31 33 33 29 30 32 31 32 36 34 34 40 41 41 42 42 43 45 43 43 45 44 45 44 42 44 45 42 41 41 38 35 35 33 29 26 24 20 18 22 25 21 16 11 8 7 6 8 12 14 19 23 23 25 26 26 26 25 25 24 23 23
34 33 33 32 31 31 29 27 26 27 26 23 21 21 21 19 19 21 25 28 29 33 33 31 31 31 30 30 31 31 30 33 36 36 39 41 41 42 41 42 44 44 44 44 45 47 46 44 45 46 46 43 42 40 37 37 36 34 33 28 23 21 18 16 18 18 14 10 8 7 11 12 10 14 20 22 23 23 24 24 23 23 23 22 22
36 35 34 34 33 32 32 31 30 29 29 27 22 19 19 19 18 20 24 26 27 29 30 30 31 32 31 29 28 31 30 32 38 38 37 38 41 42 41 42 43 44 46 45 47 51 49 46 45 46 46 44 44 43 39 38 37 36 37 35 30 27 21 16 19 21 16 10 9 7 10 13 10 11 16 20 22 22 22 22 21 21 21 20 19
Wind_Direction
209 202 202 199 197 198 199 202 201 197 200 201 200 201 200 198 200 208 208 206 207 207 205 205 219 231 234 239 240 239 238 238 240 243 245 245 246 246 247 244 241 238 237 236 233 231 234 238 238 241 223 204 197 187 180 174 176 176 173 170 167 164 162 165 164 162 161 160 161 155 149 145 140 136 136 133 133 133 132 131 129 128 127 129 128
216 206 205 202 201 200 198 200 203 202 204 203 201 202 200 200 203 207 211 212 212 214 212 210 221 232 233 235 238 237 232 231 233 238 243 245 247 247 248 247 244 240 238 237 234 231 231 233 234 239 223 200 194 186 181 180 177 173 169 166 164 163 162 165 164 163 163 161 163 159 153 149 145 144 143 138 137 136 134 132 131 131 129 131 130
225 210 207 205 204 203 200 196 201 206 208 207 207 207 205 203 205 207 212 216 219 221 218 220 230 235 229 225 226 231 230 229 231 233 237 241 245 244 246 247 245 241 238 237 234 231 229 230 229 237 225 197 192 182 180 181 175 171 168 165 163 162 162 164 163 162 163 162 164 160 154 150 150 150 149 143 140 140 135 133 136 137 136 135 133
226 211 208 210 208 207 204 198 199 203 208 212 212 211 208 206 210 211 213 220 225 227 225 228 234 234 225 220 222 227 233 234 235 235 235 236 239 238 243 246 245 241 239 237 233 230 228 227 224 233 227 199 190 178 182 183 174 174 170 166 165 163 164 164 163 165 165 164 165 159 153 153 153 153 152 147 146 144 140 141 141 139 141 140 134
221 212 211 213 211 211 210 205 204 204 209 213 212 212 210 211 217 215 217 223 226 228 228 229 233 231 225 224 224 228 231 233 234 233 232 233 234 235 242 249 248 240 239 238 234 231 227 224 221 230 228 204 191 180 186 184 176 176 170 168 166 165 165 162 164 167 167 167 165 159 157 158 156 156 155 153 152 147 144 148 144 140 141 140 135
218 214 213 213 213 214 214 212 210 210 212 213 212 213 213 214 219 217 218 223 225 227 229 231 231 227 223 225 225 228 228 228 230 229 231 230 230 234 241 250 253 245 240 240 237 232 227 223 219 227 225 204 191 183 184 181 178 174 167 168 167 167 166 163 165 169 171 169 165 165 163 161 160 160 159 156 155 151 148 149 147 145 142 139 137
216 215 213 212 214 215 216 215 215 214 214 214 213 214 215 217 219 217 218 222 226 225 225 228 228 223 220 225 225 226 226 224 224 225 231 231 231 235 239 243 250 250 243 241 240 233 228 223 220 224 214 196 188 183 179 176 177 173 168 170 169 168 166 165 168 174 174 169 167 172 169 165 163 163 164 159 157 152 149 150 149 146 143 141 140
217 215 212 215 215 216 217 215 217 216 215 215 214 215 217 220 222 222 221 221 225 223 219 219 219 219 221 226 223 225 223 222 222 222 227 231 235 234 235 239 244 249 245 241 238 235 230 226 225 220 202 189 185 181 176 174 174 172 172 171 171 171 168 167 172 177 173 170 174 176 174 171 166 166 168 163 158 154 151 152 149 145 143 143 140
220 217 214 217 217 220 218 214 217 216 215 216 215 216 218 221 223 227 226 223 222 221 220 217 215 218 222 225 222 224 220 219 222 222 220 225 235 235 236 238 243 245 242 239 234 234 231 230 228 213 199 191 186 181 177 177 176 175 176 174 177 178 171 171 175 175 171 173 179 178 179 175 169 170 171 165 160 157 154 151 146 143 143 142 138
226 222 218 219 219 223 219 215 217 216 215 216 214 215 218 219 220 225 227 226 223 222 224 219 217 220 223 224 223 225 223 222 224 224 222 221 229 236 240 240 244 244 241 237 232 234 231 235 229 212 206 192 187 186 180 181 182 181 181 178 180 180 173 174 175 174 172 174 177 178 182 178 173 173 171 168 165 160 154 149 144 142 141 141 138
230 227 224 222 222 226 221 216 218 218 216 216 215 215 215 215 219 223 223 225 225 225 227 221 220 225 226 226 226 229 230 229 228 228 227 225 227 235 243 244 245 244 242 236 230 233 232 239 230 211 209 194 188 188 181 183 184 178 177 180 182 178 175 177 174 174 174 172 174 180 182 177 175 175 171 170 167 158 151 148 144 142 141 140 138
235 233 230 226 225 228 222 218 219 219 218 218 217 217 214 213 220 224 221 222 224 225 227 223 226 231 232 230 229 230 233 232 231 229 228 229 231 236 245 248 248 244 243 236 229 230 234 242 226 205 203 190 185 182 177 179 180 175 177 185 184 175 178 179 174 174 172 169 174 179 180 176 175 175 171 170 164 152 148 147 144 142 141 140 137
245 239 233 230 227 227 222 219 220 219 219 220 221 221 218 217 222 224 220 220 223 224 226 225 228 234 233 232 232 232 234 234 232 229 228 229 232 238 245 252 251 246 244 234 226 227 238 243 217 198 193 182 179 177 174 177 179 176 177 184 180 171 177 176 173 174 168 168 175 176 178 177 174 171 168 167 161 153 150 146 143 142 141 139 136
256 248 238 232 228 225 221 219 219 218 220 220 222 223 223 225 228 226 221 222 225 225 226 226 229 235 234 235 234 235 236 235 233 228 229 230 231 237 245 256 254 246 241 227 222 229 241 242 217 199 188 179 179 180 178 180 179 176 175 179 178 171 177 179 175 171 167 170 175 173 176 174 167 166 164 162 157 152 149 144 143 143 140 137 134
260 256 246 237 231 227 221 220 220 220 221 221 222 224 225 230 233 232 226 225 227 228 227 227 230 234 236 237 236 236 236 235 232 228 231 230 229 237 246 258 258 245 237 226 223 233 237 232 213 195 182 175 176 179 178 177 176 176 175 178 179 169 177 185 177 171 169 171 172 170 171 164 158 161 159 156 154 149 147 144 142 141 139 137 133
259 258 252 243 237 232 226 224 223 223 222 222 223 225 227 231 237 238 232 228 229 229 227 227 229 232 236 238 238 237 234 233 233 233 235 232 232 240 248 257 260 248 238 230 224 231 233 215 194 179 174 171 170 172 171 172 173 173 171 172 173 169 179 186 180 173 169 171 169 163 157 154 153 154 152 151 151 147 145 142 141 140 138 136 133
258 257 254 248 243 239 233 230 228 226 225 224 224 225 227 231 238 241 235 230 229 229 228 229 230 232 236 236 238 239 234 233 237 239 238 237 238 243 250 256 259 251 237 227 220 221 213 186 179 170 165 165 167 169 167 170 173 170 166 165 167 172 182 183 180 176 168 170 162 152 149 149 153 151 149 149 147 144 141 138 138 139 136 134 132
259 255 252 249 248 246 240 236 233 231 228 226 226 226 228 231 237 239 236 232 229 228 228 232 235 235 235 233 237 240 237 236 239 243 242 243 244 245 250 253 255 245 225 214 196 186 176 165 169 166 162 162 164 168 168 169 170 165 162 164 169 175 181 177 177 176 168 166 150 145 148 148 154 153 151 148 144 142 139 136 135 135 133 132 130
261 256 252 249 247 249 247 242 237 234 231 229 228 227 228 229 234 236 236 236 230 228 229 234 238 238 236 233 235 238 236 235 238 240 239 240 241 240 244 250 252 233 208 200 176 167 166 156 158 161 163 163 163 166 167 166 161 157 159 165 171 174 175 171 175 175 167 162 146 143 146 146 153 154 150 146 142 141 139 137 134 133 132 132 131
265 260 255 252 248 248 248 245 241 237 232 230 229 228 228 228 231 233 235 237 232 229 232 235 240 241 237 234 235 236 233 232 234 235 232 230 231 233 237 247 251 227 197 181 169 165 162 154 152 152 155 157 157 157 154 154 154 158 163 166 170 172 170 170 172 169 162 159 149 144 147 148 153 156 150 143 143 141 139 138 134 131 131 132 130
274 269 261 256 252 250 248 246 243 238 233 231 231 229 229 229 230 232 234 237 234 231 233 236 240 241 236 235 236 235 234 232 233 233 228 225 226 228 232 240 240 222 191 168 170 169 162 157 151 148 151 154 152 148 147 150 156 163 165 166 168 168 170 173 168 162 162 161 150 145 150 154 156 156 150 143 144 143 142 140 133 131 132 132 130
288 282 274 265 258 253 250 246 244 240 235 231 233 232 230 230 231 233 234 236 236 232 233 235 238 239 235 234 236 235 233 232 232 230 226 224 224 226 229 229 226 218 194 171 171 171 165 163 159 156 157 156 151 148 151 153 159 163 163 165 165 164 169 173 168 162 166 161 150 148 153 161 161 157 151 146 145 145 145 141 133 133 134 134 133
315 303 291 280 269 262 256 249 246 242 237 234 233 233 231 229 231 234 234 233 234 232 231 233 235 236 233 232 233 232 231 228 227 225 226 226 222 225 224 216 214 214 198 179 174 173 169 166 162 161 160 156 150 149 153 155 161 164 162 165 166 164 165 171 175 166 162 159 152 155 158 165 167 162 155 150 148 145 144 142 136 134 134 134 133
329 320 309 297 283 276 268 258 252 246 240 238 237 236 233 229 228 231 231 231 231 230 229 231 232 233 231 231 230 229 230 227 227 227 227 229 224 219 208 199 194 188 196 183 171 169 164 158 156 158 159 156 154 154 155 157 163 165 162 166 169 165 162 172 183 178 168 161 158 162 165 170 170 165 157 152 149 145 143 141 137 137 137 133 130
331 325 319 311 298 286 276 268 261 255 248 244 241 240 237 234 229 226 227 227 227 226 227 228 229 229 229 231 229 229 231 226 226 228 224 226 226 214 195 189 180 171 189 176 157 153 150 151 154 157 159 157 157 157 159 161 163 164 165 169 172 166 162 172 183 185 178 168 165 168 173 174 170 165 158 151 146 142 142 141 137 137 137 133 130
341 335 330 324 314 301 287 276 267 261 256 252 249 246 241 236 234 230 224 222 225 225 226 227 227 227 225 226 227 229 230 226 224 223 217 219 222 211 193 187 175 163 174 169 161 158 154 156 156 156 160 158 158 159 161 163 162 163 165 169 172 166 164 173 181 180 175 172 172 171 174 173 165 161 157 148 143 140 140 140 137 135 135 135 135
350 346 340 334 325 314 302 286 274 265 258 255 253 252 247 239 236 235 228 223 225 225 224 226 226 225 222 222 224 225 226 225 221 214 209 212 213 206 193 187 178 172 176 175 177 176 168 164 159 159 162 158 160 163 164 165 163 163 164 167 170 168 171 178 183 182 175 173 175 173 172 170 163 158 152 143 140 139 138 139 137 136 136 137 139
358 355 350 344 335 325 314 296 283 273 264 258 253 251 250 244 239 236 232 227 223 221 221 223 223 224 222 220 220 221 223 224 221 214 208 206 204 199 193 189 184 182 186 184 182 178 171 167 163 164 166 160 159 164 168 170 169 168 167 167 165 165 174 181 185 187 183 178 174 174 169 166 165 158 151 143 141 141 139 139 139 138 139 139 140
2 357 354 351 345 337 325 307 293 284 274 264 256 252 250 248 242 237 232 229 224 219 219 219 219 221 221 220 219 220 222 223 223 219 209 205 204 200 197 193 189 187 186 182 180 178 170 167 167 167 167 164 161 164 170 173 172 171 170 167 162 162 171 179 181 181 182 175 164 167 165 161 159 155 151 145 141 141 140 140 140 139 140 141 141
358 357 356 354 350 345 336 320 304 291 282 270 261 256 251 249 245 240 235 233 229 223 221 219 218 218 218 220 221 220 220 222 224 222 210 207 205 202 203 198 193 192 190 185 182 182 172 164 167 166 165 165 165 166 168 170 172 174 173 168 167 167 170 175 178 177 175 167 158 162 165 159 157 155 150 142 139 140 140 139 140 142 143 142 141
353 355 355 352 350 349 345 334 318 302 289 276 266 261 256 252 248 244 241 238 232 225 223 220 219 218 217 221 222 221 221 220 223 221 210 206 204 201 204 198 196 196 193 190 184 181 173 163 165 167 167 167 167 168 168 168 171 174 175 172 172 172 170 172 174 174 170 164 161 163 166 163 159 156 148 141 139 140 140 139 143 147 144 142 142
352 353 352 352 353 354 352 345 335 318 300 286 274 266 260 256 251 247 242 239 234 229 226 221 220 219 216 221 222 221 221 219 221 221 213 206 205 202 199 195 198 196 190 189 186 181 175 169 169 170 171 170 167 169 169 169 171 173 175 173 174 173 171 171 170 171 168 166 167 164 160 157 153 152 147 143 142 140 139 138 143 145 140 140 143
349 348 350 354 357 357 354 348 343 332 314 298 285 275 265 259 254 250 244 239 235 231 229 224 223 222 217 220 222 221 222 219 220 223 220 212 209 205 198 198 199 193 186 187 187 187 184 175 171 172 171 169 165 166 167 168 169 171 173 173 172 173 173 172 171 172 168 166 168 163 157 155 152 151 148 147 144 141 139 138 140 141 140 143 143
347 346 348 354 355 355 355 350 343 336 326 310 296 287 274 264 257 254 248 240 234 230 231 230 227 225 222 222 222 221 222 220 218 222 222 216 214 209 200 200 199 192 186 185 185 186 185 175 170 170 169 166 163 164 166 166 167 168 171 172 171 174 178 174 172 176 171 167 168 163 160 161 157 155 153 150 146 143 141 140 141 144 145 146 145
348 345 346 351 352 351 353 349 342 335 328 320 305 292 282 272 262 258 254 246 238 231 230 232 231 229 226 224 222 221 222 221 218 221 222 217 213 211 207 203 200 194 187 183 182 182 183 179 174 169 167 166 163 165 166 165 166 168 169 171 172 175 180 176 172 177 173 168 168 166 165 167 161 155 153 151 146 142 143 143 144 147 147 148 149
346 344 344 347 348 350 351 347 344 340 331 323 314 299 289 283 273 264 259 252 245 238 233 233 233 232 229 226 223 220 220 221 219 219 222 218 211 212 212 207 201 194 186 184 183 180 182 182 178 170 165 165 163 164 167 166 167 169 170 171 172 176 181 182 178 180 176 168 169 170 170 170 163 154 151 149 145 143 146 147 144 145 149 150 152
345 344 344 344 345 347 348 346 344 341 333 325 319 309 300 296 287 273 264 256 250 246 242 240 237 233 231 228 224 222 220 222 220 217 219 219 213 212 214 209 204 197 189 189 188 183 180 178 177 171 165 165 164 164 165 167 167 168 170 171 173 177 182 187 186 186 185 173 170 172 174 171 162 156 153 149 146 144 147 148 143 145 150 151 152
345 345 345 344 344 343 345 346 344 340 335 329 321 316 312 307 299 285 269 259 254 250 244 242 241 238 235 231 226 225 224 223 220 216 216 219 214 210 214 213 206 200 191 188 188 185 182 178 175 173 168 165 165 165 165 167 166 165 167 169 172 178 183 188 190 191 192 183 173 170 169 167 163 161 157 151 148 146 147 146 144 146 150 151 151
344 343 345 346 344 342 343 344 344 343 339 333 326 321 318 312 310 303 281 261 254 252 246 240 239 239 238 235 232 230 226 224 220 216 213 218 215 207 212 214 207 199 191 185 185 186 185 181 176 174 172 169 168 168 167 165 164 164 165 165 170 176 181 186 190 194 195 187 177 168 165 163 163 164 160 155 152 149 149 146 144 146 149 152 153
346 343 345 346 345 344 344 344 345 344 341 338 334 327 320 313 311 309 294 271 256 250 247 243 238 236 236 235 235 232 225 221 219 215 211 215 213 205 208 212 207 199 192 188 185 185 185 181 178 176 173 170 169 169 168 164 158 155 158 160 167 175 178 181 187 194 191 182 175 170 168 164 163 164 162 159 156 154 153 149 149 150 153 155 155
349 346 346 346 344 343 344 346 345 345 344 342 339 333 325 318 311 306 300 289 269 250 245 244 240 236 235 236 234 230 221 217 216 213 210 213 211 204 204 207 205 199 195 193 187 183 182 180 179 179 174 166 163 164 166 161 151 145 147 149 157 167 172 178 184 187 184 179 174 170 170 168 165 165 165 163 160 160 159 156 155 156 157 159 157
347 347 346 345 342 341 342 344 344 344 344 342 341 337 330 322 313 306 302 297 284 264 248 244 242 237 235 237 236 231 223 218 215 207 203 206 207 203 200 201 202 200 197 192 187 183 181 179 178 178 174 167 165 166 165 161 153 150 145 135 137 149 157 167 174 178 181 179 173 168 169 169 166 165 166 166 164 164 164 163 163 162 162 164 162
342 343 344 343 340 338 337 338 340 342 342 341 341 337 332 327 317 308 304 299 293 283 268 253 247 241 236 236 235 232 227 221 215 205 202 202 203 202 198 197 197 197 195 187 185 185 182 181 179 177 173 167 167 169 170 170 161 150 144 142 144 138 143 157 163 169 175 174 171 169 168 167 167 168 169 169 169 169 169 169 170 168 168 170 169
336 337 340 340 336 334 332 331 333 338 340 340 340 337 335 333 325 318 313 305 297 292 282 267 254 244 239 236 233 231 226 220 214 208 208 206 202 203 201 196 194 195 193 186 185 184 182 182 180 176 173 166 165 171 175 176 167 156 145 132 147 151 167 162 145 155 166 166 166 168 168 167 167 169 171 172 173 174 174 173 173 173 172 174 175
333 332 333 334 329 326 325 325 325 331 338 340 341 339 337 334 329 326 324 316 306 298 285 273 263 250 241 235 232 231 225 220 215 209 209 208 202 202 204 199 196 196 192 187 186 186 183 181 179 177 175 169 165 169 175 177 172 167 160 142 145 172 177 151 139 147 164 163 162 166 168 168 169 170 172 174 175 176 177 176 177 178 177 178 180
332 330 326 325 321 319 317 318 319 324 334 339 341 340 337 334 331 328 325 319 311 302 289 280 273 261 247 236 232 232 227 220 214 207 207 209 203 200 203 202 198 196 191 187 186 185 183 181 180 179 177 173 169 169 175 178 176 174 170 167 167 170 159 152 149 149 162 161 162 166 168 168 169 171 172 173 175 176 177 178 179 181 182 183 184
330 328 323 318 316 314 312 313 315 317 326 335 339 339 337 334 331 329 326 322 316 307 302 296 285 271 254 240 235 233 228 220 212 207 207 209 205 199 200 201 198 196 191 188 187 186 185 183 182 182 179 175 173 173 176 176 178 182 180 180 181 161 163 163 158 149 155 161 163 167 170 169 167 168 170 171 172 173 175 178 180 183 185 187 187
327 326 323 318 314 311 307 307 312 315 317 324 332 333 331 331 329 329 329 327 322 314 311 308 297 282 263 245 238 232 227 221 215 209 205 205 205 201 200 201 199 197 192 189 189 189 189 186 183 184 182 179 179 179 177 176 178 182 183 184 184 174 171 172 168 156 150 147 153 164 174 174 171 169 168 169 171 172 175 177 180 183 186 188 191
325 323 322 319 314 312 308 303 307 314 316 315 321 323 323 325 325 329 333 331 328 325 320 316 307 290 269 251 240 231 226 221 216 212 206 204 206 203 201 200 199 195 192 191 190 190 191 189 185 184 185 185 185 183 181 182 182 180 179 180 176 171 173 177 175 168 161 159 158 160 167 172 176 177 175 174 174 175 177 180 182 185 188 190 194
324 321 320 318 314 311 309 306 305 309 312 308 307 312 315 318 322 331 339 338 335 332 327 322 319 307 284 262 244 232 226 219 214 213 209 205 205 203 201 200 198 195 192 192 191 191 192 191 187 184 186 188 188 187 187 186 185 183 182 180 174 170 171 176 176 171 168 169 168 164 165 169 175 181 185 183 179 179 180 182 185 187 190 194 196
320 317 316 315 313 310 307 306 304 302 306 306 299 298 304 307 313 325 337 343 340 335 331 325 324 321 308 288 260 236 226 222 217 213 210 207 203 203 202 199 199 196 193 192 193 194 194 192 188 186 187 188 188 190 192 190 189 187 186 186 184 181 178 177 178 174 172 171 168 160 165 169 162 168 187 189 185 185 185 186 190 191 195 200 203